Location: Roland
(31.1349°N, 85.4372°W)
Time: 17:59:58
(UTC+00:00)

SR - Pass Details

Date: 14 April 2021
Orbit: 573 x 882 km, 66.7° (Epoch: 12 May)

Event Time Altitude Azimuth Distance (km) Brightness Sun altitude
Rises 14:41:49 0° 229° (SW) 3,217 ? 43.1°
Reaches altitude 10° 14:44:21 10° 238° (WSW) 2,342 ? 43.6°
Maximum altitude 14:49:14 34° 302° (WNW) 1,348 ? 44.6°
Drops below altitude 10° 14:54:26 10° 6° (N) 2,498 ? 45.6°
Sets 14:57:13 0° 16° (NNE) 3,462 ? 46.2°
